Starlink 3730

operational
NORAD ID: 52139 Int'l Des: 2022-029 Owner: SPXS Country: US Constellation: starlink
LEOCIRCULAR

关于 Starlink 3730

正在加载描述...

实时位置

正在加载3D地球...

即将过境

高度历史

Altitude vs Time

uPlot chart will show altitude changes over time

两行轨道根数

1 52139U 22029BD 26061.15595011 .00000686 00000-0 61222-4 0 9994
2 52139 53.2163 112.9415 0001273 87.5227 272.5911 15.08825174219650
Epoch: Mar 2, 2026 • Age: 33 hours

当前状态

高度 545.5 km
速度 7.60 km/s
星下点 53.36°N, 93.81°W
发射日期 Mar 19, 2022
运行时间 3.9 years
类型 internet

技术详情

分类 Payload
质量 297.00 kg
干质量 275.00 kg
总质量 297.00 kg
长度 0.20 m
直径 2.80 m
跨度 9.00 m
形状 Box + pan
制造商 SPXS
平台类型 Starlink
阶段状态 In Orbit
所有者/国家 SPXS/US

大型星座

Loading constellations...